Hourly Weather Alia

Today, 5 December, Saturday

Time Temperature Precipitation Wind Pressure Humidity
00:00 +8°C° 0.1 mm 4 mps 701 mmHg 90%
01:00 +9°C° 0 mm 3 mps 701 mmHg 93%
02:00 +9°C° 0.2 mm 3 mps 701 mmHg 93%
03:00 +9°C° 0.2 mm 3 mps 701 mmHg 93%
04:00 +8°C° 0.2 mm 4 mps 700 mmHg 93%
05:00 +8°C° 0.1 mm 4 mps 701 mmHg 93%
06:00 +8°C° 0.1 mm 4 mps 701 mmHg 92%
07:00 +8°C° 0.1 mm 4 mps 701 mmHg 92%
08:00 +9°C° 0 mm 5 mps 701 mmHg 85%
09:00 +11°C° 0 mm 6 mps 702 mmHg 79%
10:00 +14°C° 0 mm 7 mps 702 mmHg 73%
11:00 +13°C° 0 mm 8 mps 702 mmHg 69%
12:00 +15°C° 0 mm 8 mps 701 mmHg 66%
13:00 +15°C° 0 mm 8 mps 701 mmHg 62%
14:00 +15°C° 0.1 mm 7 mps 701 mmHg 66%
15:00 +14°C° 0.1 mm 6 mps 700 mmHg 70%
16:00 +13°C° 0.1 mm 6 mps 700 mmHg 74%
17:00 +13°C° 0.1 mm 5 mps 700 mmHg 79%
18:00 +12°C° 0.1 mm 4 mps 700 mmHg 85%
19:00 +11°C° 0.1 mm 4 mps 699 mmHg 91%
20:00 +11°C° 0 mm 4 mps 699 mmHg 91%
21:00 +11°C° 0 mm 4 mps 699 mmHg 92%
22:00 +11°C° 0 mm 3 mps 699 mmHg 93%
23:00 +11°C° 0.2 mm 4 mps 699 mmHg 89%

Tomorrow, 6 December, Sunday

Time Temperature Precipitation Wind Pressure Humidity
00:00 +10°C° 0.2 mm 5 mps 699 mmHg 84%
01:00 +11°C° 0.2 mm 6 mps 698 mmHg 80%
02:00 +11°C° 0.8 mm 6 mps 698 mmHg 84%
03:00 +11°C° 0.8 mm 6 mps 697 mmHg 87%
04:00 +11°C° 0.8 mm 6 mps 697 mmHg 91%
05:00 +11°C° 1.9 mm 6 mps 697 mmHg 91%
06:00 +11°C° 1.9 mm 6 mps 696 mmHg 91%
07:00 +11°C° 1.9 mm 6 mps 696 mmHg 91%
08:00 +10°C° 1.2 mm 5 mps 696 mmHg 90%
09:00 +10°C° 1.2 mm 4 mps 697 mmHg 89%
10:00 +10°C° 1.2 mm 3 mps 697 mmHg 88%
11:00 +8°C° 0.3 mm 4 mps 697 mmHg 85%
12:00 +8°C° 0.3 mm 4 mps 697 mmHg 82%
13:00 +8°C° 0.3 mm 4 mps 697 mmHg 79%
14:00 +7°C° 0.2 mm 4 mps 697 mmHg 78%
15:00 +7°C° 0.2 mm 4 mps 698 mmHg 78%
16:00 +7°C° 0.2 mm 4 mps 698 mmHg 77%
17:00 +6°C° 0 mm 4 mps 698 mmHg 80%
18:00 +5°C° 0 mm 3 mps 699 mmHg 84%
19:00 +6°C° 0 mm 2 mps 699 mmHg 87%
20:00 +6°C° 0 mm 2 mps 700 mmHg 88%
21:00 +6°C° 0 mm 2 mps 700 mmHg 89%
22:00 +6°C° 0 mm 2 mps 700 mmHg 90%
23:00 +5°C° 0.1 mm 3 mps 701 mmHg 90%

Day after tomorrow, 7 December, Monday

Time Temperature Precipitation Wind Pressure Humidity
00:00 +5°C° 0.1 mm 3 mps 701 mmHg 91%
01:00 +5°C° 0.1 mm 3 mps 701 mmHg 91%
02:00 +5°C° 0.1 mm 3 mps 701 mmHg 91%
03:00 +4°C° 0.1 mm 3 mps 702 mmHg 92%
04:00 +4°C° 0.1 mm 3 mps 702 mmHg 92%
05:00 +4°C° 0.1 mm 3 mps 702 mmHg 92%
06:00 +4°C° 0.1 mm 3 mps 702 mmHg 91%
07:00 +4°C° 0.1 mm 3 mps 702 mmHg 91%
08:00 +5°C° 0.1 mm 3 mps 703 mmHg 87%
09:00 +8°C° 0.1 mm 3 mps 703 mmHg 83%
10:00 +9°C° 0.1 mm 3 mps 704 mmHg 79%
11:00 +8°C° 0.4 mm 4 mps 703 mmHg 78%
12:00 +8°C° 0.4 mm 4 mps 703 mmHg 77%
13:00 +8°C° 0.4 mm 4 mps 703 mmHg 77%
14:00 +8°C° 0.4 mm 4 mps 703 mmHg 78%
15:00 +7°C° 0.4 mm 4 mps 703 mmHg 80%
16:00 +7°C° 0.4 mm 4 mps 703 mmHg 82%
17:00 +7°C° 0.1 mm 3 mps 703 mmHg 86%
18:00 +7°C° 0.1 mm 3 mps 703 mmHg 89%
19:00 +5°C° 0.1 mm 3 mps 704 mmHg 92%
20:00 +5°C° 0.1 mm 3 mps 704 mmHg 92%
21:00 +6°C° 0.1 mm 2 mps 704 mmHg 92%
22:00 +6°C° 0.1 mm 2 mps 704 mmHg 91%
23:00 +6°C° 0 mm 2 mps 703 mmHg 92%

8 December, Tuesday

Time Temperature Precipitation Wind Pressure Humidity
00:00 +5°C° 0 mm 3 mps 703 mmHg 92%
01:00 +4°C° 0 mm 3 mps 702 mmHg 92%
02:00 +5°C° 0 mm 3 mps 702 mmHg 91%
03:00 +5°C° 0 mm 3 mps 702 mmHg 89%
04:00 +5°C° 0 mm 4 mps 701 mmHg 88%
05:00 +5°C° 0 mm 4 mps 701 mmHg 86%
06:00 +5°C° 0 mm 4 mps 701 mmHg 84%
07:00 +6°C° 0 mm 5 mps 701 mmHg 83%
08:00 +6°C° 0.3 mm 5 mps 701 mmHg 84%
09:00 +7°C° 0.3 mm 5 mps 701 mmHg 85%
10:00 +8°C° 0.3 mm 5 mps 701 mmHg 86%
11:00 +8°C° 0.9 mm 5 mps 701 mmHg 85%
12:00 +8°C° 0.9 mm 5 mps 700 mmHg 85%
13:00 +8°C° 0.9 mm 5 mps 700 mmHg 84%
14:00 +8°C° 0.9 mm 5 mps 700 mmHg 85%
15:00 +8°C° 0.9 mm 6 mps 700 mmHg 85%
16:00 +7°C° 0.9 mm 6 mps 700 mmHg 85%
17:00 +7°C° 0.1 mm 5 mps 700 mmHg 86%
18:00 +6°C° 0.1 mm 4 mps 701 mmHg 87%
19:00 +5°C° 0.1 mm 4 mps 701 mmHg 87%
20:00 +5°C° 0 mm 4 mps 701 mmHg 88%
21:00 +5°C° 0 mm 4 mps 701 mmHg 88%
22:00 +5°C° 0 mm 4 mps 701 mmHg 89%
23:00 +6°C° 0.2 mm 4 mps 701 mmHg 89%

9 December, Wednesday

Time Temperature Precipitation Wind Pressure Humidity
00:00 +6°C° 0.2 mm 4 mps 701 mmHg 89%
01:00 +6°C° 0.2 mm 5 mps 701 mmHg 89%
02:00 +7°C° 0.2 mm 5 mps 700 mmHg 88%
03:00 +7°C° 0.2 mm 5 mps 700 mmHg 87%
04:00 +7°C° 0.2 mm 5 mps 700 mmHg 86%
05:00 +6°C° 0.1 mm 4 mps 700 mmHg 88%
06:00 +6°C° 0.1 mm 4 mps 700 mmHg 89%
07:00 +5°C° 0.1 mm 3 mps 700 mmHg 91%
08:00 +6°C° 0.1 mm 4 mps 701 mmHg 86%
09:00 +7°C° 0.1 mm 4 mps 701 mmHg 81%
10:00 +9°C° 0.1 mm 5 mps 702 mmHg 76%
11:00 +10°C° 0.1 mm 4 mps 702 mmHg 73%
12:00 +10°C° 0.1 mm 4 mps 702 mmHg 70%
13:00 +10°C° 0.1 mm 4 mps 702 mmHg 67%
14:00 +10°C° 0.1 mm 3 mps 701 mmHg 68%
15:00 +9°C° 0.1 mm 2 mps 701 mmHg 70%
16:00 +8°C° 0.1 mm 2 mps 701 mmHg 71%
17:00 +8°C° 0.2 mm 2 mps 701 mmHg 73%
18:00 +8°C° 0.2 mm 1 mps 701 mmHg 76%
19:00 +8°C° 0.2 mm 1 mps 700 mmHg 78%
20:00 +6°C° 0.1 mm 2 mps 701 mmHg 80%
21:00 +6°C° 0.1 mm 2 mps 701 mmHg 82%
22:00 +6°C° 0.1 mm 2 mps 701 mmHg 83%
23:00 +4°C° 0.1 mm 3 mps 701 mmHg 84%

10 December, Thursday

Time Temperature Precipitation Wind Pressure Humidity
00:00 +4°C° 0.1 mm 3 mps 701 mmHg 86%
01:00 +4°C° 0.1 mm 4 mps 701 mmHg 87%
02:00 +3°C° 0.1 mm 4 mps 701 mmHg 87%
03:00 +3°C° 0.1 mm 4 mps 701 mmHg 87%
04:00 +3°C° 0.1 mm 4 mps 701 mmHg 87%
05:00 +3°C° 0 mm 3 mps 701 mmHg 87%
06:00 +2°C° 0 mm 3 mps 701 mmHg 86%
07:00 +2°C° 0 mm 3 mps 701 mmHg 86%
08:00 +3°C° 0 mm 5 mps 702 mmHg 79%
09:00 +4°C° 0 mm 6 mps 702 mmHg 72%
10:00 +6°C° 0 mm 8 mps 703 mmHg 65%
11:00 +6°C° 0 mm 8 mps 703 mmHg 63%
12:00 +7°C° 0 mm 8 mps 703 mmHg 62%
13:00 +8°C° 0 mm 7 mps 703 mmHg 60%
14:00 +8°C° 0 mm 6 mps 703 mmHg 63%
15:00 +7°C° 0 mm 5 mps 703 mmHg 67%
16:00 +7°C° 0 mm 4 mps 703 mmHg 70%
17:00 +7°C° 0 mm 3 mps 703 mmHg 74%
18:00 +5°C° 0 mm 3 mps 703 mmHg 78%
19:00 +5°C° 0 mm 2 mps 702 mmHg 83%
20:00 +6°C° 0.3 mm 2 mps 702 mmHg 86%
21:00 +6°C° 0.3 mm 2 mps 702 mmHg 89%
22:00 +5°C° 0.3 mm 3 mps 702 mmHg 93%
23:00 +7°C° 3.4 mm 3 mps 701 mmHg 94%
Show more

We Need Your Consent

Meteoprog and our Service Providers may store and access personal data such as cookies, device identifiers or other similar technologies on your device and process such data to personalise content and ads, as well as provide social media features and to analyse the traffic.

  • Store and/or access information on your device

    Cookies, device identifiers or other information can be stored or accessed on your device for the purposes indicated above.

  • Personalised ads and content, ad and content measurement, audience insights, and products development

    Ads and content can be personalised based on a profile. More data can be added to better personalise ads and content. Ad and content performance can be measured. Insights about the audience who saw the ads and content can be derived. Such data can be used to develop or improve user’s experience, systems and software.

By clicking ‘I Agree’ you will allow the use of indicated cookies, device identifiers, web beacons or other similar technologies. Your settings can be changed in the browser on your device.

For certain purposes, legitimate interests may be relied on, rather than consent. You can read more about this in our Privacy and Cookie Policy.